GFSSE_con_mlcape_159.txt.gz
CAPE
58 230 427 318 672 899 844 871 715 1005 1012 521 491 490 757 1009 1026 1251 1330 1167 1070 1004 693 647 669 1054 1259 1156 1076 972 979 1199 962 1267 1303 1373 1551 1617 1543 1678 1666 1671 1693
51 141 316 633 918 827 766 967 1148 1264 1380 1490 1414 1323 1309 1286 1278 1412 1317 1496 1092 977 774 1180 970 927 1161 1255 1048 987 948 1233 1177 1211 1315 1262 1394 1603 1503 1381 1308 1366 1363
6 2 288 668 799 883 1099 1005 1106 1319 1433 1486 1494 1451 1413 1329 1414 1316 1334 1357 1285 845 626 495 448 380 656 625 628 838 1153 1335 1371 1286 1157 1066 1229 1257 1001 1011 1174 1169 1143
5 61 177 810 970 1134 1263 1289 1172 1166 1462 1447 1460 1503 1146 1362 1471 344 306 340 261 480 1012 844 688 877 861 866 630 708 836 1129 1192 1130 767 826 857 1280 1384 1543 1011 890 1072
27 87 517 731 848 1268 1458 1339 1232 1252 1337 1474 1553 1485 1411 1438 799 336 1264 1361 1417 1071 898 861 703 768 605 507 475 358 466 774 1107 932 314 411 753 1001 1096 1237 1220 641 211
33 272 319 709 914 1171 1369 1432 1319 1346 1370 1512 1544 1459 1388 795 389 734 1330 1323 1023 1233 1016 610 609 591 637 346 280 400 507 717 1254 692 251 24 146 709 1092 1056 975 612 351
24 87 419 615 918 1167 1340 1306 1564 1688 1600 1637 1496 1486 889 632 698 947 961 787 1099 1051 941 807 656 725 588 507 512 354 502 1228 483 797 519 58 454 1294 1223 1178 735 463 607
9 16 160 567 947 947 930 1449 1441 1164 660 636 1137 1489 1428 1191 1372 1051 1032 1049 1368 1243 1068 905 735 513 528 462 425 304 402 615 515 323 199 23 617 1422 1548 1180 891 920 1182
14 102 140 601 796 1433 1577 1408 1384 1465 1462 1352 1203 564 1037 1407 1281 878 1097 1359 1253 1298 1113 938 780 745 643 279 197 329 481 1187 353 236 155 35 190 1225 1221 1094 569 648 883
0 51 134 338 597 1097 1461 965 896 987 800 1126 1417 1205 1111 771 803 1270 951 935 1039 1128 957 972 923 986 769 474 238 211 375 643 1002 148 234 0 0 191 801 923 766 290 616
2 7 54 163 200 424 704 1258 1110 894 917 992 1114 1117 1105 783 764 620 280 290 422 495 590 674 691 432 393 278 196 109 173 375 550 445 6 0 0 48 393 355 405 424 590
0 0 5 8 35 138 178 264 289 1035 656 437 372 389 538 830 703 818 492 789 911 1030 1266 1221 1404 1414 1427 886 779 466 201 288 307 531 323 68 0 0 190 240 107 208 604
0 0 0 0 6 34 25 20 108 656 716 682 657 679 717 627 517 599 578 506 555 780 863 948 865 885 939 951 826 280 88 121 133 351 412 327 315 157 552 606 157 150 576
0 0 0 0 5 12 5 0 86 492 473 542 705 878 1004 770 845 724 857 732 668 696 872 902 906 759 887 764 578 342 302 122 83 440 479 642 592 273 687 842 673 256 132
0 0 0 0 0 0 0 0 0 40 172 253 542 1003 759 579 427 914 929 963 953 954 1081 986 926 1029 1056 884 774 699 525 267 61 436 447 393 636 462 469 530 782 699 374
0 0 0 0 0 0 0 0 0 4 66 125 524 464 701 739 413 471 1044 871 785 810 950 882 791 866 872 820 785 859 830 762 495 239 98 107 275 543 760 725 730 813 901
0 0 0 0 0 0 0 0 0 6 41 326 671 817 971 920 858 875 756 573 379 274 612 546 515 429 308 292 432 793 930 986 849 687 497 302 299 510 769 655 699 784 743
3 0 0 0 0 0 0 0 0 0 0 83 338 731 1066 1153 1007 942 952 461 832 683 600 293 124 8 6 9 23 222 606 934 1144 1136 932 728 567 494 509 679 696 589 701
71 2 0 0 0 0 0 0 0 0 0 215 754 1137 1306 1420 1337 1233 1100 994 1109 673 430 96 0 0 0 0 0 27 441 499 511 683 817 803 656 627 579 544 725 804 672
89 8 0 0 0 0 0 0 0 7 294 937 1420 1303 1169 1324 1114 896 780 725 585 711 332 170 83 0 0 0 0 2 192 381 550 707 733 765 772 702 618 519 568 600 688
44 0 0 0 0 0 0 0 0 112 571 990 1090 1038 796 860 719 380 304 379 321 604 526 547 376 187 125 0 0 68 191 350 235 474 675 583 378 575 581 505 438 425 506
90 0 0 0 0 5 134 181 270 265 730 1018 975 955 705 524 546 248 33 0 1 174 371 931 619 467 131 23 119 308 0 0 255 247 142 96 196 375 400 313 351 398 409
108 16 0 0 0 91 287 454 641 824 1174 1016 900 836 536 546 525 358 12 0 0 0 363 1000 995 582 357 323 505 434 27 0 0 9 43 59 195 221 292 375 422 393 459
283 217 112 115 114 164 344 687 906 1001 940 868 969 909 900 532 183 0 0 0 0 0 175 680 1194 851 561 306 689 716 454 489 203 137 214 229 214 336 345 249 276 210 324
427 355 374 377 367 432 489 687 943 1118 1191 1004 923 1050 995 829 691 235 29 64 215 329 456 904 1399 1214 1041 972 806 713 811 812 723 517 100 196 339 389 332 320 237 238 311
455 447 490 509 541 751 930 1074 1101 1138 1215 1219 1047 1475 1515 1262 845 748 761 512 335 343 619 968 904 970 1073 1204 955 699 260 120 71 185 142 187 217 227 282 283 278 220 194

GFSSE_con_mlcape_162.txt.gz
CAPE
109 148 202 601 420 439 678 517 497 646 922 1117 1117 1023 999 1149 1259 1243 1036 1294 1031 789 589 844 608 910 1218 1125 1106 1025 910 571 1116 1261 1411 1637 1620 1594 1706 1699 1555 1615 1753
64 122 645 1057 995 976 986 1041 1064 771 731 748 993 1137 1064 1090 1233 1282 1267 1011 681 459 894 628 1197 1409 1119 1058 1064 901 1010 1237 1311 1273 1324 1373 1448 1431 1483 1362 1309 1481 1474
49 137 515 877 976 936 1062 1103 1189 1400 1541 1584 1470 1263 1157 1313 1342 1291 1177 1337 958 1056 581 537 746 758 981 1025 1069 1041 1007 1235 1276 1281 857 979 1258 1141 1208 1081 1043 992 1440
50 153 653 1016 1068 989 1098 1065 1272 1388 1478 1509 1392 996 1022 1071 739 1069 919 643 495 790 641 475 533 693 736 645 923 997 942 1041 1238 1274 719 878 1155 1184 1170 1344 1141 1286 1154
129 203 734 1063 1190 1349 1229 1111 1267 1419 1452 1446 1480 1353 1434 666 319 741 746 685 1168 747 644 931 1009 852 782 643 621 798 1034 1258 1322 806 390 517 709 1130 1274 964 654 450 753
127 135 863 1189 1379 1465 1397 1259 1306 1373 1363 1555 1482 1471 630 449 990 1322 1276 1254 1229 1230 706 701 709 744 476 180 277 493 567 730 1040 862 436 49 343 877 1100 1289 1263 418 90
61 177 620 1179 1300 1520 1519 1509 1525 1444 1495 1532 1436 901 605 539 1078 1349 829 1004 1032 925 1048 625 619 472 477 503 501 453 586 997 746 859 554 97 26 740 1118 1051 1004 374 263
84 135 26 303 1203 1296 1255 1262 1290 1348 1461 1626 1550 1361 1184 1108 985 839 1017 1382 1370 1260 1228 988 732 638 370 334 327 364 520 1326 743 490 532 249 42 711 1668 1357 915 618 651
10 22 117 414 1087 1306 1080 1357 1362 1394 1285 789 772 1138 1266 1159 897 1094 1606 1320 1277 1240 1129 1010 1011 1059 601 358 388 294 454 907 422 304 184 64 23 683 1671 1280 1136 932 1090
17 49 169 465 646 945 1139 1038 1231 1203 1161 1180 1138 996 695 765 1319 1155 734 986 1169 983 852 992 854 971 516 209 257 275 292 600 429 488 331 240 30 249 1020 956 1032 595 768
1 28 94 153 468 370 954 1014 1064 1329 1157 1231 1292 1536 845 694 459 323 267 207 393 439 395 614 649 599 693 615 627 568 680 333 384 527 355 263 118 62 262 698 923 868 396
3 30 54 89 196 242 217 242 527 754 494 414 409 448 534 766 646 826 815 1049 1030 1291 1475 1438 1454 1262 957 1001 873 583 202 151 336 360 604 309 151 229 272 511 577 557 581
2 5 1 9 51 63 14 33 233 594 650 680 669 617 718 581 529 499 491 509 500 717 838 902 970 831 838 912 866 459 254 250 152 107 377 588 485 399 329 434 447 384 393
0 0 0 1 0 10 3 1 42 253 323 322 544 863 896 746 628 664 534 764 595 740 883 990 840 831 989 1018 789 652 538 373 218 182 437 779 707 737 727 602 760 763 426
0 0 0 0 1 0 2 0 1 3 37 116 258 475 797 739 319 401 978 814 659 589 786 987 920 932 911 858 784 787 766 743 646 248 336 661 838 580 641 636 621 850 733
0 0 0 0 0 0 1 0 0 0 15 77 262 554 753 751 788 463 597 777 689 586 610 823 505 581 585 522 511 482 638 791 844 742 513 366 331 471 578 586 644 707 716
0 0 0 0 0 0 0 0 0 0 0 9 151 408 575 834 868 832 762 785 390 545 418 640 448 218 98 53 61 96 164 591 878 918 829 795 746 659 692 741 717 760 727
0 0 0 0 0 0 0 0 0 0 0 0 20 83 519 1106 1180 937 746 810 661 744 533 381 211 6 0 0 0 0 2 93 496 651 685 757 742 709 678 778 800 836 720
13 0 0 0 0 0 0 0 0 0 0 0 7 407 1145 1073 1147 1026 885 881 894 814 484 150 63 0 42 4 7 43 12 68 193 446 607 742 790 812 757 675 724 940 997
59 3 0 0 0 0 0 0 0 0 0 0 128 964 1225 1021 1110 888 838 911 681 789 516 172 245 200 206 198 79 13 27 40 120 344 514 705 734 603 652 658 546 518 613
26 2 0 0 0 0 0 0 0 0 0 105 490 868 744 651 736 563 239 188 334 427 557 571 416 447 400 91 35 25 19 27 86 225 31 218 59 284 500 503 373 419 487
17 0 0 0 0 0 0 0 0 8 25 123 551 757 627 525 503 369 121 5 0 0 15 46 837 675 323 28 282 255 0 0 65 23 97 24 74 199 35 175 295 344 496
14 0 0 0 0 0 0 0 53 180 336 453 804 701 456 515 438 196 48 0 0 0 0 12 270 716 610 415 474 605 59 0 96 50 83 76 168 149 177 255 276 303 338
53 20 0 0 0 0 0 0 94 200 374 615 912 902 748 510 346 180 0 0 0 0 22 83 239 868 682 465 477 600 614 383 37 3 43 52 52 19 145 150 215 307 287
48 25 16 1 0 0 0 55 237 366 595 747 899 1049 908 914 613 251 88 94 94 73 150 245 433 604 469 202 283 360 214 144 53 0 0 0 63 127 188 117 259 316 357
97 74 81 115 56 37 78 129 246 421 583 738 869 951 1007 1201 1021 595 510 364 359 402 332 373 484 515 482 312 466 104 18 24 8 4 0 1 0 82 256 309 140 138 240

GFSSE_con_mlcape_165.txt.gz
CAPE
81 92 187 365 967 1068 1172 1218 1229 1212 1161 1095 858 881 1206 1283 1038 1084 1120 946 745 832 987 536 1017 1079 876 1232 980 634 628 762 1141 1441 1465 1313 1063 1596 1639 1592 1527 1196 1807
66 143 213 893 622 902 950 806 1066 1004 995 852 764 834 945 1162 1207 1065 930 466 488 742 759 1568 1175 1045 1024 1151 1140 1160 1271 1258 1304 1346 1115 892 1230 1379 1532 1511 1428 1519 1517
74 177 474 1015 1104 909 900 811 634 857 963 1006 979 1277 1262 1156 1217 1078 1119 1198 785 575 735 792 911 1146 910 1080 1153 1235 1230 1301 1366 1278 1007 800 685 989 1128 1165 1129 1565 1491
91 225 663 668 931 961 876 984 1370 1453 1416 1175 1081 1294 1133 1197 1222 1098 512 580 824 471 413 478 584 579 723 963 1039 1047 975 1019 825 623 558 444 460 907 1027 1258 1193 1453 909
55 446 592 625 945 884 758 789 1139 1406 1324 1172 1339 1266 337 295 320 320 566 1124 519 634 1076 948 905 871 779 737 674 679 876 1202 1089 841 534 232 262 689 1205 807 552 526 729
30 310 457 1061 1247 1059 885 926 1059 1357 1359 1483 1136 692 370 1350 1141 1253 1307 1249 994 749 776 825 785 590 311 314 398 602 783 918 1170 1137 991 434 100 444 986 1240 1143 356 48
0 80 625 903 1203 994 1184 1317 1285 1512 1505 1461 848 438 432 1239 1133 770 912 810 818 896 944 737 625 440 424 424 483 443 573 1010 1223 1029 1235 675 102 204 954 912 941 499 283
0 75 396 478 852 1278 1221 930 1211 1324 1484 1255 940 765 774 797 696 1060 1183 1270 1271 1258 1132 1016 874 480 427 371 433 428 494 853 833 945 1193 823 286 154 1315 1314 1050 556 586
1 0 136 293 1194 1353 1428 1459 1193 903 1006 1300 1341 1254 1065 880 1105 1443 1304 1085 1253 1253 954 998 811 639 426 288 292 326 450 565 1226 791 556 774 208 29 797 1924 1259 1058 986
0 1 56 165 322 1166 1133 1294 1204 1068 1070 979 763 764 902 1127 1119 670 395 580 661 671 672 783 689 380 205 105 161 182 329 377 459 673 828 861 264 97 361 1265 1263 1061 700
0 0 44 141 378 877 907 1254 1222 1263 1375 1127 1364 881 817 785 711 476 329 465 670 696 928 1173 1279 1293 930 633 976 1057 872 713 532 941 841 696 481 283 158 524 994 1053 975
0 3 32 125 208 220 164 388 795 760 761 868 881 886 947 1164 1198 1342 949 853 1110 1044 1125 1112 1055 940 1004 1278 1184 987 610 469 478 482 583 575 448 403 385 338 450 632 740
1 34 0 67 121 38 1 101 388 753 805 989 1011 1095 1166 1144 1084 1091 999 1150 980 850 1187 1132 1340 1235 1333 1410 1302 1197 1042 856 651 502 388 514 722 662 742 772 554 651 559
0 4 1 22 24 29 0 30 138 412 406 451 606 1040 1317 1259 1069 1270 1288 1132 1133 935 1148 1459 1436 1272 1444 1401 1240 1179 1106 1014 816 669 556 489 853 827 889 1016 842 804 894
0 0 2 3 16 36 10 7 26 24 56 136 422 1032 1031 1319 975 435 956 1278 1348 1275 1262 1471 1333 1268 1066 917 1124 1284 957 926 996 970 753 532 637 718 704 817 848 708 689
0 0 0 0 1 3 9 0 1 1 46 212 629 897 1056 1225 1457 1268 1033 1347 1164 909 650 767 1032 979 782 529 303 265 486 621 1135 1315 1112 1114 757 652 638 723 818 657 693
0 0 0 0 0 0 0 1 0 0 5 24 67 248 534 933 1588 1579 1365 1292 1211 866 1160 1050 1069 821 339 86 40 54 119 95 331 1012 1251 1341 1291 1134 975 1044 1046 961 885
0 0 0 0 0 0 0 0 0 0 1 0 0 115 619 1423 1696 1728 1592 1437 1551 1571 1351 864 902 389 178 229 195 251 260 112 178 579 941 1149 1176 1224 1149 1026 865 853 995
5 0 0 0 0 0 0 0 0 0 4 1 0 69 1034 1889 1848 1319 1349 1508 1585 1339 1455 197 497 335 561 619 534 144 75 166 327 573 793 1100 1149 783 741 1000 847 702 720
170 39 0 0 0 0 0 0 0 0 0 0 41 494 1433 1436 1436 1359 1275 1089 1439 1167 1281 1436 1215 992 875 684 265 94 168 164 543 297 3 244 121 238 407 349 266 580 393
193 128 85 45 0 0 0 0 0 0 0 0 220 764 1238 1174 1206 1223 1029 648 533 627 604 393 643 1022 771 447 438 115 0 0 472 0 5 36 0 213 85 0 104 179 56
154 112 103 47 13 0 0 0 0 0 16 93 335 1033 1112 1105 1083 969 776 611 248 15 0 258 677 730 650 557 493 584 0 25 35 11 127 5 100 0 0 0 1 44 108
169 101 21 17 5 0 0 0 0 33 78 198 354 732 778 799 953 776 591 331 6 0 5 133 527 816 992 730 692 282 3 0 0 0 0 9 31 0 0 0 2 34 166
181 204 140 33 0 0 0 0 0 0 27 324 810 1156 1075 981 896 859 658 182 16 32 124 333 543 871 970 699 759 806 823 541 0 0 0 0 0 13 9 5 30 73 142
263 199 160 102 2 0 0 0 3 32 230 696 1055 948 1606 1406 1232 1025 708 421 302 232 283 504 767 1023 1008 755 508 487 637 211 246 164 47 19 56 65 27 15 51 112 110
237 227 194 188 120 11 0 3 14 108 409 732 1060 1015 1461 1807 1810 1245 835 703 703 707 778 845 1200 1440 1011 810 849 927 258 26 19 54 97 130 75 19 24 84 96 119 99

GFSSE_con_mlcape_168.txt.gz
CAPE
112 116 332 754 1047 1129 1197 1089 1010 1255 965 743 1298 1244 1106 1061 1296 1188 900 794 1051 832 1158 1281 1132 1103 1198 1128 763 851 1138 1353 1455 1509 987 791 784 1155 1323 1282 1015 818 1855
60 114 406 812 1159 1228 1252 1288 1186 1107 874 898 1192 1065 1176 1182 1361 859 515 911 673 1296 1517 1050 975 1029 1121 1157 1327 1196 1427 1358 1340 1249 913 601 630 766 800 771 872 1277 1387
109 210 242 688 1168 1085 1222 1262 922 883 1006 1030 1247 1229 1314 1238 1292 1145 1293 743 610 848 845 1072 1112 986 1054 1177 1123 1176 1405 1373 876 431 555 157 401 780 965 1059 1218 1112 1364
107 265 417 467 645 798 1008 1148 1219 1214 1085 1321 1307 1410 1465 1331 1117 584 801 900 434 512 491 529 523 776 1025 1066 1095 1057 1097 866 385 398 99 50 158 987 1321 1230 1084 1039 559
143 393 285 974 987 1200 1405 1306 1336 1223 1215 1403 882 436 403 310 264 994 1012 503 959 1226 1018 938 927 804 719 757 677 673 818 1046 1033 778 201 14 173 509 1076 595 621 672 764
100 153 359 1014 992 907 1309 1472 1346 1346 1326 1348 638 470 1655 1254 1205 1336 1291 886 966 950 940 904 677 491 506 542 697 765 937 1096 1254 401 156 93 27 121 876 1408 1113 352 52
0 271 870 836 614 699 1165 1361 1157 1272 1300 673 368 936 1434 1109 819 1007 880 788 905 951 779 712 673 560 527 557 495 514 661 1119 858 892 688 115 24 21 884 852 902 525 288
32 329 504 622 798 1122 1347 1319 1398 1308 873 549 499 941 868 764 1235 1265 1268 1176 1177 1124 996 812 649 518 424 394 490 379 491 610 940 1050 1004 888 111 11 661 1453 1265 527 542
0 38 303 636 852 1031 1172 1259 1366 1376 1326 1281 1201 1115 981 1279 1479 1235 1103 1215 1249 971 868 745 564 597 393 248 301 321 366 361 936 1081 856 1067 294 9 182 1607 1370 1108 956
0 29 207 744 1159 974 1178 1276 987 753 659 612 833 1163 1012 691 472 341 231 506 765 779 603 439 386 277 247 105 261 882 752 1055 1123 1047 1217 1268 495 254 178 285 1183 1185 838
0 0 88 341 759 875 542 720 1150 1458 1277 820 578 604 435 163 173 244 98 394 792 832 1116 1219 965 891 395 560 911 548 611 564 698 742 839 716 503 502 294 224 426 703 684
0 0 6 362 600 440 754 936 760 903 866 900 1175 1298 869 1112 1241 988 851 654 1040 1105 1106 954 792 645 729 684 966 972 731 542 434 674 708 447 514 658 580 401 317 459 672
1 0 42 116 102 176 533 786 968 856 949 1242 1529 1340 1671 1492 1461 1183 1250 1376 1511 1071 1157 845 989 607 802 847 574 665 770 533 312 317 496 298 592 659 750 840 791 575 647
14 53 22 31 128 30 71 483 1017 911 905 897 1297 1623 1558 1172 1155 1381 1424 1619 1658 1413 1308 1531 1391 1451 1262 1186 1097 951 779 559 396 306 375 432 552 836 906 958 942 934 885
43 55 6 47 89 71 110 201 356 254 465 697 995 1487 1528 1620 1625 1460 1325 1446 1329 1321 1338 1558 1484 1178 1265 1014 989 905 725 667 763 828 809 669 594 653 836 980 1113 1115 1076
49 40 48 54 94 135 121 14 200 108 340 768 1064 1351 1654 1796 1749 1932 1727 1549 1477 940 733 759 1188 1348 838 153 121 124 215 371 472 1163 1247 1272 1043 909 852 967 1006 884 972
21 26 24 49 61 128 166 77 149 43 103 231 437 870 1296 1771 2073 1979 1733 1647 1558 1541 1780 1445 1448 1195 740 383 384 491 460 315 148 308 1042 1198 1224 1239 1149 1087 1065 1043 1075
2 0 13 7 2 44 56 200 75 58 71 77 91 313 1032 1894 1852 1775 1303 1390 1660 1516 1343 1248 604 722 891 1195 613 55 93 104 178 441 161 433 242 19 448 933 703 651 794
15 0 10 20 16 16 28 59 49 46 38 18 3 36 640 1728 1376 1441 1327 1520 1879 1708 1154 1108 938 1185 913 549 2 0 12 29 302 9 1 137 113 15 36 38 126 37 377
95 0 0 0 1 35 48 75 2 0 6 0 0 83 1031 1769 1512 1474 1120 1838 1528 1350 1128 1448 1158 1241 988 254 0 0 0 0 370 35 0 40 0 31 43 0 0 0 279
446 327 85 0 12 63 59 0 0 0 0 0 4 293 1044 1712 1809 2131 1575 1245 1492 1077 1140 1255 1141 1260 202 177 67 56 172 163 201 44 101 95 103 123 0 0 0 0 0
381 496 547 454 312 206 71 65 33 34 16 57 241 752 1695 1865 2004 2064 1898 1125 1117 499 628 948 1392 508 289 482 63 106 125 89 165 68 155 66 123 117 54 35 22 46 65
263 369 447 669 678 680 393 145 143 141 88 93 144 325 994 1811 1882 2226 2091 1628 1291 629 238 1000 1219 1275 176 646 1170 527 160 146 66 18 19 49 112 91 73 44 21 16 105
316 341 402 555 715 714 616 181 116 8 14 14 240 804 1616 2070 2025 2037 2230 2052 1285 665 770 1020 1330 1439 1676 355 767 1229 998 596 361 310 245 284 286 274 202 36 2 0 23
266 298 450 677 643 603 606 402 112 95 0 72 530 1349 1908 2048 2170 2300 2302 2054 1534 1349 1168 1664 1875 1944 1382 1398 814 653 841 684 449 349 291 403 358 280 248 55 1 0 35
441 404 397 734 909 761 572 536 363 142 277 513 1082 1573 1618 1464 1528 2163 2309 2157 2193 2047 2018 1976 1969 1990 1884 1650 1297 897 916 711 357 307 383 504 634 607 258 20 0 1 26

GFSSE_con_mlcape_171.txt.gz
CAPE
70 130 703 1019 816 662 876 923 1369 1233 920 1080 1268 1300 1388 1413 1208 990 1212 1124 1135 1196 1241 1157 1061 1060 980 982 1052 1290 1385 1504 1126 1106 803 654 874 989 908 1074 754 920 1637
112 268 457 902 1104 916 879 1172 1136 1022 1359 1360 1262 1396 1430 1351 699 803 884 1173 862 1184 1025 991 1053 1251 1507 1283 1395 1306 1220 1397 1020 1111 902 681 567 518 543 768 514 1267 1451
116 152 441 724 1144 1455 1342 1301 988 1045 1100 1348 1413 1401 1299 1266 1560 1060 866 927 980 1081 1365 1102 791 1095 1168 1046 1237 1238 1202 687 616 1010 1377 711 278 606 691 888 1022 1122 1291
91 162 518 711 946 1291 1057 871 1258 1167 1347 1334 1507 1548 1525 1138 814 1016 676 480 526 601 509 693 906 1071 1251 1419 1435 1357 1053 525 383 633 647 534 526 1219 1170 560 685 617 1068
104 288 322 773 957 1112 1470 1447 1163 1225 1182 1098 1068 993 629 389 1343 885 625 1515 1298 1160 1094 1098 949 866 838 802 940 951 968 722 1036 1069 18 95 720 1121 772 739 470 563 1007
154 278 570 1195 1379 1425 1406 1388 1356 1325 1340 374 493 1008 1449 1299 1120 1080 1090 1193 1116 1137 1069 843 753 765 859 869 751 823 1091 1279 1478 449 235 0 218 448 1266 1192 617 43 643
169 304 745 1001 1138 1445 1459 1481 1342 1438 840 441 1431 1429 1343 1331 1327 1088 901 1115 1061 836 804 859 631 583 549 599 489 440 550 1000 1235 560 280 22 0 458 924 758 1000 372 97
194 412 436 556 985 1249 1347 1476 1395 943 514 433 1363 1275 931 1273 1333 1247 1093 1045 1031 896 747 723 642 553 522 436 480 435 381 396 1039 718 1074 386 0 30 1085 1295 1318 549 529
169 398 604 598 704 1280 1412 1412 1457 1448 1394 1239 969 916 1081 1267 1173 1102 1230 1314 1130 872 750 571 363 334 300 250 214 223 296 443 825 937 907 1015 166 0 48 1453 1614 802 687
84 255 429 276 734 710 775 1094 1133 1216 1299 1277 1146 692 642 977 685 373 581 528 619 700 649 547 263 105 84 63 133 588 558 1118 1524 1245 1298 987 415 261 115 436 1239 1072 891
2 83 509 537 761 758 520 627 986 845 553 257 157 350 495 258 372 374 85 103 611 847 1021 1301 1022 614 231 367 916 741 648 1330 1093 749 1286 620 539 591 414 297 457 792 908
0 9 98 473 646 440 218 974 686 1057 1270 865 1016 1211 1103 981 756 725 548 540 861 877 1160 903 560 308 792 983 1432 1214 1201 209 233 215 1265 558 543 717 771 511 372 522 852
0 0 33 176 450 259 466 700 663 708 935 1287 1535 1573 1327 1227 1397 1356 1617 1504 1820 1293 1463 1227 1308 1244 643 662 416 356 495 346 167 151 616 425 331 677 861 858 780 758 633
14 8 30 126 180 232 462 805 952 622 913 1207 1313 1758 1484 1430 1154 1048 1051 1187 1470 1293 1130 1347 1288 1333 1118 1028 1063 949 739 682 622 469 801 482 451 548 809 865 934 1002 1105
14 21 31 201 302 120 256 729 633 350 734 865 1256 1786 1873 1845 805 1515 1472 1249 1233 871 1045 1056 929 1295 1099 988 740 773 344 487 716 704 891 878 862 788 767 977 1203 1263 1131
39 46 80 107 82 75 327 427 660 332 537 786 1073 1552 1738 1762 1908 1527 1735 1508 1576 966 715 766 1471 1130 942 662 407 382 492 515 504 762 1000 1313 1163 1124 1062 1102 1192 1272 1259
21 41 23 51 50 148 422 179 388 151 243 480 620 1017 1541 1991 2159 2191 1554 1379 1357 1498 2033 1687 1294 1213 1015 565 697 617 513 629 282 296 650 1009 1392 1293 815 1004 609 707 851
61 56 39 4 15 75 64 434 318 197 319 336 315 322 628 1199 1555 1620 1299 1506 1710 1460 749 1107 710 868 886 712 159 8 24 31 52 272 29 164 42 2 903 369 81 0 0
31 30 2 0 0 0 27 233 232 235 237 178 80 53 277 1279 1585 1530 1142 1359 2089 1371 1091 1362 918 720 475 312 1 0 42 62 316 1 64 145 95 60 106 169 0 0 6
170 16 88 53 58 24 20 197 134 48 57 54 36 79 389 1321 1921 1896 1297 1436 1604 1139 1325 1233 1329 768 680 279 3 12 25 0 103 202 49 117 88 115 134 42 11 0 3
274 16 29 149 230 297 306 108 11 0 0 30 43 82 370 1331 1632 2061 1657 1070 1119 1131 908 1617 1379 1349 496 192 77 41 120 244 224 207 100 138 148 203 247 137 156 74 39
421 295 53 61 221 417 348 374 100 13 36 68 112 348 878 1708 2000 2099 2233 1912 1329 785 1125 1242 1601 1012 237 360 368 183 188 210 183 199 138 132 38 142 161 156 134 155 53
570 715 755 739 436 499 403 352 383 486 432 251 81 261 479 1427 1849 1976 2446 2532 2322 1675 273 1150 1271 1129 290 232 688 1109 661 334 431 340 203 216 235 335 354 382 268 60 53
385 634 874 1148 1243 1141 1111 653 668 426 336 68 134 159 1084 1670 2053 2172 2362 2507 2665 2040 1511 1276 1531 1684 1883 1258 842 1130 1501 1181 751 625 688 543 709 703 551 522 381 108 88
305 389 617 1045 1324 1447 1417 1293 757 577 245 75 81 541 1502 2157 1997 1918 2502 2615 2594 2416 2105 2092 2408 2287 2172 1588 1313 1088 924 1428 1311 826 553 529 644 606 568 783 598 291 74
196 303 489 983 1233 1347 1355 1352 1177 831 584 255 391 874 1241 1327 1461 1656 2436 2611 2815 2675 2551 2432 2367 2406 2303 2126 1952 1604 1221 985 959 743 596 750 900 985 879 785 720 466 1

GFSSE_con_mlcape_174.txt.gz
CAPE
96 213 705 625 879 906 1320 1277 977 756 1066 1187 1261 1217 1122 1210 1415 1196 1159 1277 1207 1247 1249 1104 951 860 997 1197 1253 1137 1104 948 919 753 1074 829 884 1173 544 557 724 962 1403
87 239 686 906 732 898 1446 1177 1172 1239 1214 1229 1170 1184 1009 819 859 1171 882 1359 1363 1222 1205 1199 1398 1464 1346 1455 1275 1019 1105 1000 1144 1006 903 925 523 860 270 2 1053 1136 1574
81 207 362 1164 911 1049 1175 983 1056 1148 1333 1356 1206 1211 1229 1368 1267 1124 1272 1327 1398 1206 915 957 1133 951 1085 1272 1223 840 523 625 1060 1228 742 243 618 902 1039 1013 1135 1354 1144
85 133 130 756 1090 1383 862 1001 1017 1224 1205 1330 1352 1264 1151 978 1009 482 451 688 718 655 773 700 928 1252 1392 1423 1273 807 592 580 657 928 685 534 458 775 622 737 619 1116 679
75 213 301 733 913 786 1301 1087 1325 1267 1394 1345 1394 1077 481 1498 729 813 1358 1301 1103 1100 1257 1127 1079 1039 935 861 779 603 658 827 1067 1285 621 678 484 767 561 586 695 1001 983
84 362 424 836 1463 1581 1018 1246 1305 1441 453 367 354 777 1255 912 954 1448 1294 1219 1189 1146 1009 872 839 914 910 794 593 486 798 1376 1613 1180 1 360 221 553 948 674 95 116 903
196 585 900 1158 1358 1333 1256 1336 1337 1241 521 1450 1223 1251 1080 1402 1151 1076 1205 1202 1111 973 923 811 753 632 520 505 380 293 426 877 1311 799 151 0 0 471 801 603 416 51 19
78 486 697 848 1352 1378 1430 1372 1287 607 496 1530 1447 911 1116 1200 1079 1078 999 927 909 886 817 663 572 446 336 246 239 211 306 612 289 921 229 17 0 399 845 813 923 410 253
375 532 672 826 1157 1428 1429 1475 1115 828 538 769 860 617 1055 1107 1072 1051 970 1000 940 748 583 420 409 409 227 153 133 136 219 685 667 964 549 297 62 88 975 1406 1242 526 433
313 316 355 434 722 832 1051 1103 1504 1461 1361 1114 401 539 866 438 424 639 511 463 375 350 264 447 411 266 180 157 174 245 366 718 859 823 38 515 172 102 200 1234 1436 925 704
125 289 362 438 758 671 504 548 434 623 664 247 483 712 866 714 448 754 597 0 8 91 164 225 282 273 349 325 350 630 1124 1010 1303 1449 636 761 453 395 299 335 1156 1011 920
1 87 310 620 674 510 136 559 674 954 883 366 742 548 883 876 517 625 419 289 772 977 854 620 525 650 646 666 816 997 1249 1145 741 1211 1138 454 672 632 612 512 442 794 911
0 26 30 432 730 458 938 1122 819 738 1322 1019 1102 1066 1254 1127 860 1317 514 1169 1354 1658 1329 1438 6 0 580 1196 893 976 700 305 467 838 603 633 526 599 807 771 639 598 681
0 0 0 159 429 256 830 392 255 755 186 431 1133 1222 1501 1510 1326 1440 1036 1253 1499 991 1292 976 225 218 1260 1221 335 932 763 551 168 459 483 383 454 480 615 794 905 983 1045
0 0 0 458 346 357 406 9 44 439 978 1247 1568 1794 2043 1397 590 1116 1117 1250 1315 801 1058 793 793 1338 854 1052 863 390 161 293 416 714 799 604 740 820 760 811 938 1101 1242
6 1 15 584 176 144 549 714 717 560 624 1072 1727 1671 1708 1842 1879 1780 1339 1530 1397 692 877 800 946 847 1269 828 334 567 385 519 561 297 853 1039 1139 1067 760 846 995 1173 1325
0 12 45 308 21 143 546 579 338 469 369 534 712 1196 1385 1483 1685 1189 1550 1605 1648 1657 1624 1750 1509 1237 1052 913 371 24 65 444 400 255 268 1009 1565 1317 976 955 367 250 189
62 82 240 27 1 196 374 276 723 545 405 443 326 267 547 897 1571 1495 1723 322 1378 1523 832 930 962 814 714 372 280 97 0 0 7 198 439 9 82 932 1135 780 130 12 0
58 35 213 4 43 189 124 599 572 409 319 307 157 68 576 848 1693 1490 1437 1634 1453 1294 1286 1154 1394 1094 565 538 82 0 0 99 18 205 34 106 314 54 822 738 281 99 87
22 175 63 61 14 95 70 163 317 296 205 157 110 128 235 919 1559 1930 1300 1724 1469 985 734 767 1297 1044 718 382 197 18 140 27 148 214 102 267 364 164 197 260 406 102 177
94 108 177 166 125 277 108 239 316 164 94 31 89 103 183 699 1800 2009 2094 1639 1491 1115 1205 1324 1774 1310 1167 835 63 124 72 111 18 60 62 45 8 256 388 293 245 183 171
238 290 214 362 575 440 518 769 451 405 284 861 498 538 637 983 1784 2119 1759 2057 1811 1705 1267 782 939 1283 1164 779 307 550 519 534 301 170 223 146 212 159 210 203 414 450 317
453 451 229 370 633 740 674 697 889 415 353 350 238 239 352 797 1856 1943 2131 2285 2187 2320 1512 1277 1284 1178 914 1049 1400 1091 655 424 625 741 730 597 775 826 735 715 595 537 926
661 787 560 435 393 834 752 536 767 554 621 517 691 552 887 1632 1756 2095 2391 2404 2668 2364 2365 1787 1880 1645 1645 1584 1731 1621 1594 1388 171 139 665 701 614 630 914 706 441 667 763
587 850 1087 1500 1363 1192 1191 963 636 1237 710 665 374 219 662 1456 1822 1811 1686 2507 2706 2692 2637 2344 2174 2246 1866 1608 1598 1356 1280 791 687 807 626 531 586 807 1132 927 754 957 1231
455 573 1047 1551 1678 1824 1977 1795 1355 1408 1146 679 624 987 910 1599 2028 1841 1346 468 1477 2653 2743 2563 2259 2235 2177 1927 1472 1282 761 952 662 813 551 480 462 578 664 645 677 898 1012